Hourly Data Report for July 24, 2021

TORONTO CITY CENTRE
ONTARIO
Current Station Operator: NAVCAN

43°37'39.000" N
79°23'46.000" W
76.80 m
6158359
71265
YTZ

Download Data

Hourly Data (July 2021)
Hourly Data Report for July 24, 2021
TIME
LST
Temp Definition
°C
Dew Point Definition
°C
Rel Hum Definition
%
Precip. Amount Definition
mm

Wind Dir Definition
10's deg

Wind Spd Definition
km/h
Visibility Definition
km
Stn Press Definition
kPa
Hmdx Definition


Wind Chill Definition


Weather Definition


00:00 21.1 17.6 80 0.0 26 4 16.1 100.99 27   LegendNANA
01:00 18.9 17.4 91 0.0   0 16.1 100.96     LegendNANA
02:00 19.5 17.1 86 0.0 8 8 16.1 100.95     LegendNANA
03:00 19.1 17.5 90 0.0 8 5 16.1 100.92     LegendNANA
04:00 19.3 17.3 88 0.0 7 9 16.1 100.86     LegendNANA
05:00 19.6 17.6 88 0.0 7 9 16.1 100.81     LegendNANA
06:00 19.6 17.9 90 0.0 7 13 16.1 100.79     LegendNANA
07:00 19.9 18.6 92 0.0 7 11 16.1 100.75     LegendNANA
08:00 21.8 17.4 76 0.0 17 9 16.1 100.75 27   LegendNANA
09:00 21.8 18.0 79 0.0 17 8 16.1 100.73 28   LegendNANA
10:00 22.8 18.0 74 0.0 14 9 16.1 100.69 29   LegendNANA
11:00 22.3 17.9 76 0.0 12 11 16.1 100.65 28   LegendNANA
12:00 22.0 18.7 81 0.0 8 8 16.1 100.63 29   LegendNANA
13:00 21.7 19.8 89 0.0 9 11 16.1 100.53 29   Rain
14:00 23.2 18.9 77 0.0 15 11 16.1 100.45 30   LegendNANA
15:00 21.2 19.5 90 2.3 14 9 12.9 100.36 28   Rain
16:00 21.4 20.4 94 0.2 18 13 16.1 100.26 29   LegendNANA
17:00 21.9 20.4 91 0.0 16 9 16.1 100.15 30   LegendNANA
18:00 22.0 20.8 93 0.0 18 13 16.1 100.08 30   LegendNANA
19:00 22.0 20.5 91 0.8 20 18 16.1 99.95 30   Rain
20:00 22.1 20.4 90 0.0 20 17 16.1 99.83 30   LegendNANA
21:00 22.0 20.3 90 0.0 22 17 16.1 99.90 30   Rain
22:00 22.0 20.3 90 0.5 23 21 14.5 99.82 30   Rain
23:00 21.2 20.8 97 13.9 24 17 4.0 99.83 29   Heavy Rain, Fog

Notes on Data Quality.

Legend

  • E = Estimated
  • M = Missing
  • NA = Not Available*
  • [empty] = Indicates an unobserved value
Date modified: